Location: Chilton Park
(37.7711°N, 100.0276°W)
Time: 17:22:11
(UTC+00:00)

Cosmos 1898 Rocket - Pass Details

Date: 03 July 2022
Orbit: 753 x 783 km, 74.0° (Epoch: 18 August)

Event Time Altitude Azimuth Distance (km) Brightness Sun altitude
Rises 09:25:16 0° 327° (NNW) 3,211 7.0 -18.5°
Reaches altitude 10° 09:28:00 10° 314° (NW) 2,282 6.0 -18.1°
Maximum altitude 09:32:05 24° 262° (W) 1,520 4.6 -17.6°
Enters shadow 09:32:20 24° 257° (WSW) 1,523 4.6 -17.6°
